| time (UTC) | temp F | wind direction | speed MPH | gust MPH | rain 1hr in | rain 24hr in | rain mn in | humidity % | barometer mb |
| 20260904152024 | 66 | 0 | 0.0 | 3.0 | 0.00 | 0.00 | 0.00 | 42 | 1011.3 |
| 20260904151547 | 65 | 252 | 1.0 | 3.0 | 0.00 | 0.00 | 0.00 | 50 | 1011.3 |
| 20260904151028 | 64 | 55 | 0.0 | 2.0 | 0.00 | 0.00 | 0.00 | 53 | 1011.3 |
| 20260904150529 | 63 | 0 | 0.0 | 2.0 | 0.00 | 0.00 | 0.00 | 47 | 1011.3 |
| 20260904150056 | 63 | 94 | 0.0 | 2.0 | 0.00 | 0.00 | 0.00 | 53 | 1011.4 |
| 20260904145527 | 62 | 0 | 0.0 | 2.0 | 0.00 | 0.00 | 0.00 | 51 | 1011.4 |
| 20260904145030 | 61 | 0 | 0.0 | 3.0 | 0.00 | 0.00 | 0.00 | 60 | 1011.5 |
| 20260904144549 | 60 | 0 | 1.0 | 3.0 | 0.00 | 0.00 | 0.00 | 57 | 1011.5 |
| 20260904144028 | 60 | 46 | 0.0 | 1.0 | 0.00 | 0.00 | 0.00 | 58 | 1011.5 |
| 20260904143524 | 59 | 0 | 0.0 | 0.0 | 0.00 | 0.00 | 0.00 | 59 | 1011.5 |
| 20260904143043 | 59 | 0 | 0.0 | 2.0 | 0.00 | 0.00 | 0.00 | 64 | 1011.6 |
| 20260904142525 | 58 | 0 | 0.0 | 2.0 | 0.00 | 0.00 | 0.00 | 66 | 1011.5 |
| 20260904142026 | 57 | 94 | 0.0 | 2.0 | 0.00 | 0.00 | 0.00 | 66 | 1011.5 |
| 20260904141544 | 57 | 0 | 0.0 | 0.0 | 0.00 | 0.00 | 0.00 | 64 | 1011.5 |
| 20260904141025 | 55 | 0 | 0.0 | 0.0 | 0.00 | 0.00 | 0.00 | 69 | 1011.5 |
| 20260904140524 | 54 | 0 | 0.0 | 0.0 | 0.00 | 0.00 | 0.00 | 69 | 1011.4 |
| 20260904140047 | 53 | 0 | 0.0 | 3.0 | 0.00 | 0.00 | 0.00 | 72 | 1011.4 |
| 20260904135527 | 52 | 0 | 0.0 | 4.0 | 0.00 | 0.00 | 0.00 | 72 | 1011.4 |
| 20260904135027 | 51 | 0 | 1.0 | 4.0 | 0.00 | 0.00 | 0.00 | 71 | 1011.3 |
| 20260904134548 | 50 | 216 | 2.0 | 4.0 | 0.00 | 0.00 | 0.00 | 73 | 1011.3 |
| 20260904134025 | 50 | 257 | 2.0 | 4.0 | 0.00 | 0.00 | 0.00 | 74 | 1011.0 |
| 20260904133525 | 49 | 0 | 0.0 | 0.0 | 0.00 | 0.00 | 0.00 | 76 | 1011.1 |
| 20260904133047 | 48 | 0 | 0.0 | 0.0 | 0.00 | 0.00 | 0.00 | 76 | 1011.0 |
| 20260904132525 | 47 | 0 | 0.0 | 0.0 | 0.00 | 0.00 | 0.00 | 77 | 1010.9 |
| 20260904132025 | 47 | 0 | 0.0 | 0.0 | 0.00 | 0.00 | 0.00 | 78 | 1011.0 |
| 20260904131545 | 46 | 0 | 0.0 | 0.0 | 0.00 | 0.00 | 0.00 | 79 | 1010.8 |
| 20260904131026 | 46 | 0 | 0.0 | 0.0 | 0.00 | 0.00 | 0.00 | 77 | 1010.6 |
| 20260904130527 | 46 | 0 | 0.0 | 0.0 | 0.00 | 0.00 | 0.00 | 77 | 1010.5 |
| 20260904130052 | 46 | 0 | 0.0 | 0.0 | 0.00 | 0.00 | 0.00 | 78 | 1010.6 |
| 20260904125529 | 46 | 0 | 0.0 | 0.0 | 0.00 | 0.00 | 0.00 | 80 | 1010.4 |
| 20260904125028 | 46 | 0 | 0.0 | 0.0 | 0.00 | 0.00 | 0.00 | 81 | 1010.4 |
| 20260904124556 | 46 | 0 | 0.0 | 0.0 | 0.00 | 0.00 | 0.00 | 81 | 1010.3 |
| 20260904124023 | 46 | 0 | 0.0 | 0.0 | 0.00 | 0.00 | 0.00 | 81 | 1010.3 |
| 20260904123525 | 46 | 0 | 0.0 | 0.0 | 0.00 | 0.00 | 0.00 | 80 | 1010.1 |
| 20260904123045 | 46 | 0 | 0.0 | 0.0 | 0.00 | 0.00 | 0.00 | 81 | 1010.1 |
| 20260904122524 | 46 | 0 | 0.0 | 0.0 | 0.00 | 0.00 | 0.00 | 80 | 1010.2 |
| 20260904122024 | 46 | 0 | 0.0 | 0.0 | 0.00 | 0.00 | 0.00 | 80 | 1010.1 |
| 20260904121543 | 46 | 0 | 0.0 | 0.0 | 0.00 | 0.00 | 0.00 | 78 | 1010.0 |
| 20260904121024 | 47 | 0 | 0.0 | 0.0 | 0.00 | 0.00 | 0.00 | 77 | 1010.0 |
| 20260904120524 | 47 | 0 | 0.0 | 2.0 | 0.00 | 0.00 | 0.00 | 77 | 1009.9 |
| 20260904120054 | 47 | 0 | 0.0 | 2.0 | 0.00 | 0.00 | 0.00 | 77 | 1010.0 |
| 20260904115528 | 47 | 358 | 0.0 | 2.0 | 0.00 | 0.00 | 0.00 | 76 | 1009.9 |
| 20260904115028 | 48 | 0 | 0.0 | 0.0 | 0.00 | 0.00 | 0.00 | 76 | 1009.9 |
| 20260904114546 | 48 | 0 | 0.0 | 1.0 | 0.00 | 0.00 | 0.00 | 75 | 1009.8 |
| 20260904114028 | 48 | 0 | 0.0 | 1.0 | 0.00 | 0.00 | 0.00 | 75 | 1009.9 |
| 20260904113524 | 48 | 0 | 0.0 | 1.0 | 0.00 | 0.00 | 0.00 | 75 | 1009.8 |
| 20260904113050 | 48 | 0 | 0.0 | 0.0 | 0.00 | 0.00 | 0.00 | 74 | 1009.7 |
| 20260904112525 | 48 | 0 | 0.0 | 1.0 | 0.00 | 0.00 | 0.00 | 73 | 1009.8 |
| 20260904112026 | 48 | 0 | 0.0 | 3.0 | 0.00 | 0.00 | 0.00 | 73 | 1009.8 |
| 20260904111544 | 49 | 0 | 1.0 | 3.0 | 0.00 | 0.00 | 0.00 | 73 | 1009.7 |
| 20260904111024 | 49 | 269 | 2.0 | 3.0 | 0.00 | 0.00 | 0.00 | 72 | 1009.9 |
| 20260904110525 | 49 | 0 | 1.0 | 3.0 | 0.00 | 0.00 | 0.00 | 72 | 1009.7 |
| 20260904110050 | 49 | 0 | 0.0 | 4.0 | 0.00 | 0.00 | 0.00 | 72 | 1009.8 |
| 20260904105527 | 49 | 83 | 1.0 | 4.0 | 0.00 | 0.00 | 0.00 | 72 | 1009.8 |
| 20260904105027 | 49 | 79 | 0.0 | 3.0 | 0.00 | 0.00 | 0.00 | 72 | 1009.8 |
| 20260904104543 | 50 | 0 | 0.0 | 3.0 | 0.00 | 0.00 | 0.00 | 69 | 1009.7 |
| 20260904104026 | 50 | 79 | 1.0 | 4.0 | 0.00 | 0.00 | 0.00 | 70 | 1009.8 |
| 20260904103528 | 50 | 94 | 0.0 | 4.0 | 0.00 | 0.00 | 0.00 | 71 | 1009.6 |
| 20260904103044 | 50 | 94 | 1.0 | 4.0 | 0.00 | 0.00 | 0.00 | 70 | 1009.7 |
| 20260904102523 | 50 | 257 | 1.0 | 3.0 | 0.00 | 0.00 | 0.00 | 72 | 1009.5 |
| 20260904102023 | 50 | 248 | 1.0 | 3.0 | 0.00 | 0.00 | 0.00 | 71 | 1009.4 |
| 20260904101555 | 50 | 248 | 1.0 | 3.0 | 0.00 | 0.00 | 0.00 | 71 | 1009.4 |
| 20260904101028 | 50 | 248 | 0.0 | 2.0 | 0.00 | 0.00 | 0.00 | 73 | 1009.5 |
| 20260904100530 | 50 | 248 | 0.0 | 2.0 | 0.00 | 0.00 | 0.00 | 72 | 1009.5 |
| 20260904100044 | 50 | 0 | 0.0 | 2.0 | 0.00 | 0.00 | 0.00 | 72 | 1009.5 |
| 20260904095527 | 51 | 247 | 1.0 | 3.0 | 0.00 | 0.00 | 0.00 | 71 | 1009.5 |
| 20260904095026 | 51 | 0 | 0.0 | 3.0 | 0.00 | 0.00 | 0.00 | 70 | 1009.4 |
| 20260904094554 | 51 | 248 | 1.0 | 3.0 | 0.00 | 0.00 | 0.00 | 69 | 1009.4 |
| 20260904094024 | 51 | 221 | 1.0 | 3.0 | 0.00 | 0.00 | 0.00 | 68 | 1009.4 |
| 20260904093524 | 51 | 0 | 0.0 | 3.0 | 0.00 | 0.00 | 0.00 | 70 | 1009.4 |
| 20260904093057 | 52 | 220 | 0.0 | 3.0 | 0.00 | 0.00 | 0.00 | 69 | 1009.4 |
| 20260904092528 | 52 | 218 | 1.0 | 4.0 | 0.00 | 0.00 | 0.00 | 67 | 1009.2 |
| 20260904092024 | 51 | 216 | 1.0 | 4.0 | 0.00 | 0.00 | 0.00 | 69 | 1009.5 |
| 20260904091550 | 51 | 176 | 1.0 | 3.0 | 0.00 | 0.00 | 0.00 | 69 | 1009.5 |
| 20260904091028 | 51 | 0 | 0.0 | 0.0 | 0.00 | 0.00 | 0.00 | 68 | 1009.2 |
| 20260904090526 | 52 | 0 | 0.0 | 0.0 | 0.00 | 0.00 | 0.00 | 70 | 1009.2 |
| 20260904090048 | 52 | 0 | 0.0 | 0.0 | 0.00 | 0.00 | 0.00 | 67 | 1009.2 |
| 20260904085526 | 52 | 0 | 0.0 | 0.0 | 0.00 | 0.00 | 0.00 | 67 | 1009.3 |
| 20260904085028 | 52 | 0 | 0.0 | 0.0 | 0.00 | 0.00 | 0.00 | 67 | 1009.3 |
| 20260904084545 | 52 | 0 | 0.0 | 1.0 | 0.00 | 0.00 | 0.00 | 67 | 1009.3 |
| 20260904084025 | 52 | 0 | 0.0 | 2.0 | 0.00 | 0.00 | 0.00 | 67 | 1009.3 |
| 20260904083525 | 52 | 0 | 0.0 | 2.0 | 0.00 | 0.00 | 0.00 | 67 | 1009.4 |
| 20260904083050 | 52 | 0 | 0.0 | 2.0 | 0.00 | 0.00 | 0.00 | 69 | 1009.5 |
| 20260904082527 | 53 | 0 | 0.0 | 2.0 | 0.00 | 0.00 | 0.00 | 68 | 1009.7 |
| 20260904082026 | 53 | 302 | 0.0 | 3.0 | 0.00 | 0.00 | 0.00 | 68 | 1009.6 |
| 20260904081605 | 53 | 0 | 1.0 | 3.0 | 0.00 | 0.00 | 0.00 | 67 | 1009.6 |
| 20260904081024 | 53 | 76 | 1.0 | 3.0 | 0.00 | 0.00 | 0.00 | 68 | 1009.7 |
| 20260904080524 | 53 | 0 | 0.0 | 0.0 | 0.00 | 0.00 | 0.00 | 67 | 1009.5 |
| 20260904080047 | 53 | 0 | 0.0 | 0.0 | 0.00 | 0.00 | 0.00 | 66 | 1009.7 |
| 20260904075525 | 54 | 0 | 0.0 | 0.0 | 0.00 | 0.00 | 0.00 | 66 | 1009.7 |
| 20260904075026 | 54 | 0 | 0.0 | 0.0 | 0.00 | 0.00 | 0.00 | 67 | 1009.8 |
| 20260904074606 | 54 | 0 | 0.0 | 0.0 | 0.00 | 0.00 | 0.00 | 66 | 1009.8 |
| 20260904074024 | 54 | 0 | 0.0 | 0.0 | 0.00 | 0.00 | 0.00 | 66 | 1009.7 |
| 20260904073527 | 55 | 0 | 0.0 | 0.0 | 0.00 | 0.00 | 0.00 | 65 | 1009.8 |
| 20260904073102 | 55 | 0 | 0.0 | 0.0 | 0.00 | 0.00 | 0.00 | 63 | 1009.7 |
| 20260904072527 | 56 | 0 | 0.0 | 0.0 | 0.00 | 0.00 | 0.00 | 62 | 1009.7 |
| 20260904072026 | 56 | 0 | 0.0 | 0.0 | 0.00 | 0.00 | 0.00 | 62 | 1009.8 |
| 20260904071544 | 56 | 0 | 0.0 | 0.0 | 0.00 | 0.00 | 0.00 | 60 | 1009.8 |
| 20260904071026 | 56 | 0 | 0.0 | 0.0 | 0.00 | 0.00 | 0.00 | 61 | 1009.9 |
| 20260904070528 | 56 | 0 | 0.0 | 0.0 | 0.00 | 0.00 | 0.00 | 60 | 1009.7 |
| 20260904070053 | 56 | 0 | 0.0 | 0.0 | 0.00 | 0.00 | 0.00 | 61 | 1009.8 |
| 20260904065524 | 57 | 0 | 0.0 | 2.0 | 0.00 | 0.00 | 0.00 | 59 | 1009.9 |
| 20260904065024 | 57 | 0 | 0.0 | 3.0 | 0.00 | 0.00 | 0.00 | 60 | 1009.8 |
| 20260904064551 | 57 | 195 | 1.0 | 3.0 | 0.00 | 0.00 | 0.00 | 60 | 1009.8 |
| 20260904064025 | 57 | 196 | 1.0 | 3.0 | 0.00 | 0.00 | 0.00 | 60 | 1009.7 |
| 20260904063527 | 58 | 0 | 0.0 | 2.0 | 0.00 | 0.00 | 0.00 | 59 | 1009.7 |
| 20260904063054 | 58 | 0 | 1.0 | 2.0 | 0.00 | 0.00 | 0.00 | 58 | 1009.7 |
| 20260904062527 | 58 | 0 | 0.0 | 2.0 | 0.00 | 0.00 | 0.00 | 57 | 1009.6 |
| 20260904062026 | 59 | 0 | 0.0 | 2.0 | 0.00 | 0.00 | 0.00 | 57 | 1009.8 |
| 20260904061543 | 59 | 0 | 0.0 | 3.0 | 0.00 | 0.00 | 0.00 | 57 | 1009.7 |
| 20260904061028 | 59 | 0 | 0.0 | 3.0 | 0.00 | 0.00 | 0.00 | 56 | 1009.8 |
| 20260904060526 | 60 | 192 | 2.0 | 3.0 | 0.00 | 0.00 | 0.00 | 56 | 1009.6 |
| 20260904060056 | 60 | 0 | 0.0 | 3.0 | 0.00 | 0.00 | 0.00 | 54 | 1009.5 |
| 20260904055524 | 60 | 231 | 1.0 | 3.0 | 0.00 | 0.00 | 0.00 | 54 | 1009.6 |
| 20260904055024 | 60 | 221 | 0.0 | 3.0 | 0.00 | 0.00 | 0.00 | 56 | 1009.7 |
| 20260904054548 | 61 | 0 | 1.0 | 3.0 | 0.00 | 0.00 | 0.00 | 55 | 1009.7 |
| 20260904054025 | 61 | 221 | 0.0 | 4.0 | 0.00 | 0.00 | 0.00 | 55 | 1009.7 |
| 20260904053525 | 61 | 221 | 0.0 | 4.0 | 0.00 | 0.00 | 0.00 | 54 | 1009.8 |
| 20260904053045 | 61 | 203 | 1.0 | 3.0 | 0.00 | 0.00 | 0.00 | 55 | 1009.8 |
| 20260904052525 | 61 | 199 | 0.0 | 2.0 | 0.00 | 0.00 | 0.00 | 54 | 1009.8 |
| 20260904052025 | 61 | 199 | 0.0 | 5.0 | 0.00 | 0.00 | 0.00 | 53 | 1009.8 |
| 20260904051545 | 61 | 0 | 0.0 | 5.0 | 0.00 | 0.00 | 0.00 | 52 | 1009.8 |
| 20260904051025 | 62 | 204 | 2.0 | 5.0 | 0.00 | 0.00 | 0.00 | 53 | 1009.9 |
| 20260904050525 | 62 | 212 | 2.0 | 4.0 | 0.00 | 0.00 | 0.00 | 51 | 1009.8 |
| 20260904050045 | 62 | 191 | 1.0 | 4.0 | 0.00 | 0.00 | 0.00 | 52 | 1009.8 |
| 20260904045525 | 63 | 195 | 2.0 | 4.0 | 0.00 | 0.00 | 0.00 | 49 | 1009.8 |
| 20260904045027 | 63 | 0 | 0.0 | 2.0 | 0.00 | 0.00 | 0.00 | 44 | 1009.8 |
| 20260904044548 | 63 | 0 | 1.0 | 2.0 | 0.00 | 0.00 | 0.00 | 43 | 1009.8 |
| 20260904044031 | 63 | 0 | 0.0 | 3.0 | 0.00 | 0.00 | 0.00 | 46 | 1009.9 |
| 20260904043527 | 63 | 200 | 0.0 | 3.0 | 0.00 | 0.00 | 0.00 | 47 | 1009.9 |
| 20260904043057 | 62 | 200 | 1.0 | 3.0 | 0.00 | 0.00 | 0.00 | 48 | 1010.0 |
| 20260904042530 | 63 | 193 | 1.0 | 2.0 | 0.00 | 0.00 | 0.00 | 56 | 1010.0 |
| 20260904042026 | 63 | 0 | 0.0 | 2.0 | 0.00 | 0.00 | 0.00 | 53 | 1010.0 |
| 20260904041543 | 63 | 193 | 0.0 | 2.0 | 0.00 | 0.00 | 0.00 | 53 | 1010.1 |
| 20260904041025 | 63 | 193 | 0.0 | 2.0 | 0.00 | 0.00 | 0.00 | 51 | 1010.0 |
| 20260904040524 | 63 | 193 | 1.0 | 2.0 | 0.00 | 0.00 | 0.00 | 48 | 1010.1 |
| 20260904040045 | 63 | 193 | 0.0 | 2.0 | 0.00 | 0.00 | 0.00 | 47 | 1010.0 |
| 20260904035526 | 63 | 0 | 0.0 | 2.0 | 0.00 | 0.00 | 0.00 | 46 | 1010.0 |
| 20260904035024 | 63 | 0 | 0.0 | 1.0 | 0.00 | 0.00 | 0.00 | 48 | 1009.9 |
| 20260904034550 | 63 | 0 | 0.0 | 1.0 | 0.00 | 0.00 | 0.00 | 43 | 1010.0 |
| 20260904034024 | 64 | 0 | 0.0 | 1.0 | 0.00 | 0.00 | 0.00 | 48 | 1010.1 |
| 20260904033529 | 64 | 0 | 0.0 | 2.0 | 0.00 | 0.00 | 0.00 | 44 | 1010.1 |
| 20260904033051 | 64 | 0 | 0.0 | 3.0 | 0.00 | 0.00 | 0.00 | 44 | 1010.1 |
| 20260904032530 | 64 | 193 | 0.0 | 3.0 | 0.00 | 0.00 | 0.00 | 43 | 1010.0 |
| 20260904032026 | 64 | 193 | 0.0 | 1.0 | 0.00 | 0.00 | 0.00 | 45 | 1010.2 |
| 20260904031546 | 65 | 0 | 0.0 | 0.0 | 0.00 | 0.00 | 0.00 | 44 | 1010.0 |
| 20260904031024 | 65 | 0 | 0.0 | 0.0 | 0.00 | 0.00 | 0.00 | 36 | 1009.9 |
| 20260904030526 | 65 | 0 | 0.0 | 0.0 | 0.00 | 0.00 | 0.00 | 37 | 1010.0 |
| 20260904030044 | 65 | 0 | 0.0 | 0.0 | 0.00 | 0.00 | 0.00 | 37 | 1009.8 |
| 20260904025525 | 66 | 0 | 0.0 | 0.0 | 0.00 | 0.00 | 0.00 | 38 | 1009.7 |
| 20260904025025 | 66 | 0 | 0.0 | 0.0 | 0.00 | 0.00 | 0.00 | 42 | 1009.7 |
| 20260904024546 | 66 | 0 | 0.0 | 0.0 | 0.00 | 0.00 | 0.00 | 39 | 1009.7 |
| 20260904024025 | 67 | 0 | 0.0 | 0.0 | 0.00 | 0.00 | 0.00 | 37 | 1009.4 |
| 20260904023525 | 67 | 0 | 0.0 | 0.0 | 0.00 | 0.00 | 0.00 | 36 | 1009.4 |
| 20260904023054 | 68 | 0 | 0.0 | 0.0 | 0.00 | 0.00 | 0.00 | 37 | 1009.2 |
| 20260904022525 | 68 | 0 | 0.0 | 0.0 | 0.00 | 0.00 | 0.00 | 37 | 1009.2 |
| 20260904022026 | 68 | 0 | 0.0 | 0.0 | 0.00 | 0.00 | 0.00 | 38 | 1009.1 |
| 20260904021555 | 69 | 0 | 0.0 | 0.0 | 0.00 | 0.00 | 0.00 | 38 | 1009.3 |
| 20260904021025 | 69 | 0 | 0.0 | 0.0 | 0.00 | 0.00 | 0.00 | 39 | 1009.2 |
| 20260904020525 | 70 | 0 | 0.0 | 0.0 | 0.00 | 0.00 | 0.00 | 41 | 1009.1 |
| 20260904020045 | 70 | 0 | 0.0 | 0.0 | 0.00 | 0.00 | 0.00 | 36 | 1009.1 |
| 20260904015524 | 71 | 0 | 0.0 | 2.0 | 0.00 | 0.00 | 0.00 | 36 | 1009.1 |
| 20260904015024 | 71 | 0 | 0.0 | 2.0 | 0.00 | 0.00 | 0.00 | 38 | 1009.1 |
| 20260904014619 | 72 | 0 | 0.0 | 2.0 | 0.00 | 0.00 | 0.00 | 37 | 1009.1 |
| 20260904014025 | 72 | 0 | 0.0 | 0.0 | 0.00 | 0.00 | 0.00 | 36 | 1009.0 |
| 20260904013526 | 73 | 0 | 0.0 | 0.0 | 0.00 | 0.00 | 0.00 | 35 | 1009.1 |
| 20260904013058 | 74 | 0 | 0.0 | 1.0 | 0.00 | 0.00 | 0.00 | 37 | 1009.0 |
| 20260904012526 | 75 | 0 | 0.0 | 1.0 | 0.00 | 0.00 | 0.00 | 38 | 1009.0 |
| 20260904012027 | 76 | 0 | 0.0 | 1.0 | 0.00 | 0.00 | 0.00 | 33 | 1009.1 |
| 20260904011546 | 77 | 0 | 0.0 | 1.0 | 0.00 | 0.00 | 0.00 | 33 | 1008.9 |
| 20260904011024 | 78 | 42 | 0.0 | 1.0 | 0.00 | 0.00 | 0.00 | 31 | 1009.1 |
| 20260904010524 | 79 | 42 | 0.0 | 3.0 | 0.00 | 0.00 | 0.00 | 29 | 1009.1 |
| 20260904010046 | 80 | 0 | 0.0 | 3.0 | 0.00 | 0.00 | 0.00 | 29 | 1009.1 |
| 20260904005527 | 81 | 49 | 1.0 | 5.0 | 0.00 | 0.00 | 0.00 | 28 | 1009.1 |
| 20260904005024 | 81 | 0 | 0.0 | 5.0 | 0.00 | 0.00 | 0.00 | 29 | 1009.1 |
| 20260904004550 | 81 | 41 | 2.0 | 5.0 | 0.00 | 0.00 | 0.00 | 26 | 1009.1 |
| 20260904004027 | 81 | 46 | 1.0 | 3.0 | 0.00 | 0.00 | 0.00 | 26 | 1009.1 |
| 20260904003526 | 81 | 51 | 0.0 | 3.0 | 0.00 | 0.00 | 0.00 | 26 | 1009.1 |
| 20260904003045 | 81 | 0 | 0.0 | 3.0 | 0.00 | 0.00 | 0.00 | 27 | 1009.1 |
| 20260904002526 | 81 | 41 | 0.0 | 3.0 | 0.00 | 0.00 | 0.00 | 25 | 1009.1 |
| 20260904002025 | 82 | 342 | 0.0 | 6.0 | 0.00 | 0.00 | 0.00 | 32 | 1009.1 |
| 20260904001542 | 82 | 30 | 1.0 | 6.0 | 0.00 | 0.00 | 0.00 | 26 | 1009.1 |
| 20260904001024 | 82 | 46 | 1.0 | 8.0 | 0.00 | 0.00 | 0.00 | 26 | 1009.2 |
| 20260904000525 | 82 | 37 | 4.0 | 8.0 | 0.00 | 0.00 | 0.00 | 22 | 1009.2 |
| 20260903235529 | 83 | 56 | 2.0 | 7.0 | 0.00 | 0.00 | 0.00 | 23 | 1009.2 |
| 20260903235024 | 83 | 72 | 3.0 | 5.0 | 0.00 | 0.00 | 0.00 | 22 | 1009.2 |
| 20260903234552 | 83 | 136 | 2.0 | 5.0 | 0.00 | 0.00 | 0.00 | 23 | 1009.3 |
| 20260903234025 | 83 | 0 | 0.0 | 4.0 | 0.00 | 0.00 | 0.00 | 23 | 1009.3 |
| 20260903233525 | 83 | 331 | 1.0 | 5.0 | 0.00 | 0.00 | 0.00 | 23 | 1009.2 |
| 20260903233045 | 84 | 307 | 2.0 | 5.0 | 0.00 | 0.00 | 0.00 | 18 | 1009.3 |
| 20260903232528 | 84 | 290 | 1.0 | 5.0 | 0.00 | 0.00 | 0.00 | 19 | 1009.4 |
| 20260903232025 | 84 | 281 | 1.0 | 5.0 | 0.00 | 0.00 | 0.00 | 25 | 1009.4 |
| 20260903231548 | 84 | 260 | 1.0 | 7.0 | 0.00 | 0.00 | 0.00 | 23 | 1009.4 |
| 20260903231024 | 84 | 215 | 1.0 | 7.0 | 0.00 | 0.00 | 0.00 | 25 | 1009.5 |
| 20260903230527 | 84 | 209 | 2.0 | 7.0 | 0.00 | 0.00 | 0.00 | 24 | 1009.5 |
| 20260903230044 | 84 | 15 | 1.0 | 3.0 | 0.00 | 0.00 | 0.00 | 19 | 1009.4 |
| 20260903225524 | 83 | 0 | 0.0 | 9.0 | 0.00 | 0.00 | 0.00 | 22 | 1009.5 |
| 20260903225026 | 83 | 275 | 2.0 | 9.0 | 0.00 | 0.00 | 0.00 | 21 | 1009.5 |
| 20260903224554 | 83 | 147 | 4.0 | 9.0 | 0.00 | 0.00 | 0.00 | 25 | 1009.5 |
| 20260903224024 | 84 | 174 | 3.0 | 7.0 | 0.00 | 0.00 | 0.00 | 22 | 1009.5 |
| 20260903223525 | 83 | 0 | 0.0 | 6.0 | 0.00 | 0.00 | 0.00 | 20 | 1009.5 |
| 20260903223043 | 83 | 94 | 1.0 | 11.0 | 0.00 | 0.00 | 0.00 | 25 | 1009.5 |
| 20260903222525 | 83 | 212 | 3.0 | 11.0 | 0.00 | 0.00 | 0.00 | 22 | 1009.7 |
| 20260903222025 | 83 | 157 | 5.0 | 11.0 | 0.00 | 0.00 | 0.00 | 20 | 1009.5 |
| 20260903221550 | 82 | 89 | 3.0 | 9.0 | 0.00 | 0.00 | 0.00 | 23 | 1009.5 |
| 20260903221024 | 82 | 58 | 5.0 | 9.0 | 0.00 | 0.00 | 0.00 | 22 | 1009.6 |
| 20260903220524 | 82 | 77 | 2.0 | 12.0 | 0.00 | 0.00 | 0.00 | 22 | 1009.7 |
| 20260903220105 | 82 | 160 | 3.0 | 12.0 | 0.00 | 0.00 | 0.00 | 21 | 1009.7 |
| 20260903215525 | 82 | 93 | 6.0 | 12.0 | 0.00 | 0.00 | 0.00 | 22 | 1009.8 |
| 20260903215024 | 82 | 237 | 4.0 | 9.0 | 0.00 | 0.00 | 0.00 | 25 | 1009.8 |
| 20260903214551 | 83 | 147 | 4.0 | 9.0 | 0.00 | 0.00 | 0.00 | 21 | 1009.8 |
| 20260903214028 | 83 | 157 | 3.0 | 7.0 | 0.00 | 0.00 | 0.00 | 26 | 1009.8 |
| 20260903213529 | 83 | 210 | 4.0 | 7.0 | 0.00 | 0.00 | 0.00 | 23 | 1009.8 |
| 20260903213048 | 83 | 212 | 2.0 | 6.0 | 0.00 | 0.00 | 0.00 | 23 | 1009.8 |
| 20260903212523 | 83 | 71 | 0.0 | 6.0 | 0.00 | 0.00 | 0.00 | 25 | 1009.8 |
| 20260903212023 | 83 | 201 | 3.0 | 8.0 | 0.00 | 0.00 | 0.00 | 26 | 1009.8 |
| 20260903211544 | 83 | 188 | 3.0 | 8.0 | 0.00 | 0.00 | 0.00 | 21 | 1009.8 |
| 20260903211024 | 83 | 245 | 1.0 | 7.0 | 0.00 | 0.00 | 0.00 | 31 | 1009.9 |
| 20260903210525 | 82 | 205 | 1.0 | 7.0 | 0.00 | 0.00 | 0.00 | 27 | 1009.7 |
| 20260903210049 | 82 | 225 | 3.0 | 9.0 | 0.00 | 0.00 | 0.00 | 22 | 1009.8 |
| 20260903205525 | 82 | 201 | 5.0 | 9.0 | 0.00 | 0.00 | 0.00 | 26 | 1010.0 |
| 20260903205026 | 82 | 150 | 3.0 | 12.0 | 0.00 | 0.00 | 0.00 | 21 | 1009.8 |
| 20260903204545 | 82 | 268 | 2.0 | 14.0 | 0.00 | 0.00 | 0.00 | 23 | 1010.0 |
| 20260903204024 | 81 | 278 | 5.0 | 14.0 | 0.00 | 0.00 | 0.00 | 22 | 1010.0 |
| 20260903203525 | 82 | 188 | 7.0 | 12.0 | 0.00 | 0.00 | 0.00 | 26 | 1009.9 |
| 20260903203045 | 82 | 169 | 4.0 | 8.0 | 0.00 | 0.00 | 0.00 | 26 | 1010.0 |
| 20260903202523 | 82 | 95 | 4.0 | 10.0 | 0.00 | 0.00 | 0.00 | 26 | 1010.0 |
| 20260903202025 | 81 | 119 | 2.0 | 10.0 | 0.00 | 0.00 | 0.00 | 27 | 1010.1 |
| 20260903201544 | 81 | 155 | 2.0 | 7.0 | 0.00 | 0.00 | 0.00 | 23 | 1010.1 |
| 20260903201023 | 81 | 180 | 4.0 | 13.0 | 0.00 | 0.00 | 0.00 | 27 | 1010.3 |
| 20260903200527 | 81 | 202 | 4.0 | 13.0 | 0.00 | 0.00 | 0.00 | 26 | 1010.3 |
| 20260903200051 | 81 | 33 | 5.0 | 12.0 | 0.00 | 0.00 | 0.00 | 28 | 1010.3 |
| 20260903195525 | 80 | 15 | 3.0 | 10.0 | 0.00 | 0.00 | 0.00 | 25 | 1010.3 |
| 20260903195029 | 80 | 28 | 2.0 | 10.0 | 0.00 | 0.00 | 0.00 | 25 | 1010.5 |
| 20260903194552 | 80 | 92 | 4.0 | 10.0 | 0.00 | 0.00 | 0.00 | 24 | 1010.6 |
| 20260903194026 | 79 | 102 | 4.0 | 8.0 | 0.00 | 0.00 | 0.00 | 26 | 1010.6 |
| 20260903193529 | 79 | 351 | 4.0 | 9.0 | 0.00 | 0.00 | 0.00 | 24 | 1010.7 |
| 20260903193050 | 79 | 1 | 5.0 | 9.0 | 0.00 | 0.00 | 0.00 | 25 | 1010.7 |
| 20260903192524 | 79 | 68 | 4.0 | 11.0 | 0.00 | 0.00 | 0.00 | 24 | 1010.7 |
| 20260903192025 | 79 | 51 | 6.0 | 11.0 | 0.00 | 0.00 | 0.00 | 26 | 1010.8 |
| 20260903191547 | 78 | 336 | 3.0 | 10.0 | 0.00 | 0.00 | 0.00 | 28 | 1010.9 |
| 20260903191029 | 78 | 20 | 5.0 | 10.0 | 0.00 | 0.00 | 0.00 | 26 | 1010.9 |
| 20260903190524 | 78 | 46 | 5.0 | 10.0 | 0.00 | 0.00 | 0.00 | 28 | 1010.7 |
| 20260903190058 | 78 | 63 | 6.0 | 10.0 | 0.00 | 0.00 | 0.00 | 26 | 1010.9 |
| 20260903185524 | 78 | 45 | 3.0 | 8.0 | 0.00 | 0.00 | 0.00 | 31 | 1010.8 |
| 20260903185025 | 78 | 33 | 3.0 | 8.0 | 0.00 | 0.00 | 0.00 | 34 | 1011.0 |
| 20260903184544 | 79 | 72 | 5.0 | 8.0 | 0.00 | 0.00 | 0.00 | 28 | 1011.1 |
| 20260903184027 | 79 | 132 | 4.0 | 8.0 | 0.00 | 0.00 | 0.00 | 28 | 1011.2 |
| 20260903183527 | 78 | 61 | 3.0 | 8.0 | 0.00 | 0.00 | 0.00 | 27 | 1011.1 |
| 20260903183056 | 78 | 141 | 3.0 | 8.0 | 0.00 | 0.00 | 0.00 | 25 | 1011.2 |
| 20260903182526 | 78 | 108 | 4.0 | 8.0 | 0.00 | 0.00 | 0.00 | 25 | 1011.1 |
| 20260903182025 | 77 | 113 | 2.0 | 6.0 | 0.00 | 0.00 | 0.00 | 25 | 1011.2 |
| 20260903181551 | 77 | 27 | 2.0 | 5.0 | 0.00 | 0.00 | 0.00 | 24 | 1011.2 |
| 20260903181027 | 77 | 39 | 2.0 | 5.0 | 0.00 | 0.00 | 0.00 | 34 | 1011.3 |
| 20260903180525 | 76 | 80 | 2.0 | 5.0 | 0.00 | 0.00 | 0.00 | 26 | 1011.3 |
| 20260903180051 | 76 | 129 | 3.0 | 5.0 | 0.00 | 0.00 | 0.00 | 29 | 1011.5 |
| 20260903175524 | 76 | 106 | 2.0 | 5.0 | 0.00 | 0.00 | 0.00 | 29 | 1011.6 |
| 20260903175025 | 76 | 360 | 1.0 | 3.0 | 0.00 | 0.00 | 0.00 | 26 | 1011.6 |
| 20260903174544 | 75 | 0 | 0.0 | 2.0 | 0.00 | 0.00 | 0.00 | 34 | 1011.7 |
| 20260903174024 | 75 | 0 | 0.0 | 2.0 | 0.00 | 0.00 | 0.00 | 26 | 1011.7 |
| 20260903173528 | 76 | 0 | 0.0 | 5.0 | 0.00 | 0.00 | 0.00 | 27 | 1011.7 |
| 20260903173054 | 76 | 102 | 0.0 | 5.0 | 0.00 | 0.00 | 0.00 | 25 | 1011.8 |
| 20260903172525 | 76 | 36 | 2.0 | 5.0 | 0.00 | 0.00 | 0.00 | 23 | 1011.8 |
| 20260903172025 | 76 | 172 | 2.0 | 5.0 | 0.00 | 0.00 | 0.00 | 30 | 1011.7 |
| 20260903171548 | 76 | 195 | 0.0 | 3.0 | 0.00 | 0.00 | 0.00 | 28 | 1011.9 |
| 20260903171025 | 76 | 328 | 0.0 | 5.0 | 0.00 | 0.00 | 0.00 | 32 | 1011.9 |
| 20260903170524 | 76 | 139 | 0.0 | 5.0 | 0.00 | 0.00 | 0.00 | 28 | 1011.9 |
| 20260903170055 | 76 | 157 | 3.0 | 5.0 | 0.00 | 0.00 | 0.00 | 30 | 1012.0 |
| 20260903165526 | 76 | 221 | 2.0 | 5.0 | 0.00 | 0.00 | 0.00 | 27 | 1012.0 |
| 20260903165024 | 76 | 359 | 1.0 | 4.0 | 0.00 | 0.00 | 0.00 | 28 | 1012.0 |
| 20260903164557 | 75 | 248 | 0.0 | 5.0 | 0.00 | 0.00 | 0.00 | 33 | 1011.9 |
| 20260903164026 | 75 | 284 | 1.0 | 5.0 | 0.00 | 0.00 | 0.00 | 34 | 1012.0 |
| 20260903163526 | 74 | 25 | 2.0 | 5.0 | 0.00 | 0.00 | 0.00 | 26 | 1012.1 |
| 20260903163100 | 74 | 0 | 1.0 | 4.0 | 0.00 | 0.00 | 0.00 | 30 | 1012.2 |
| 20260903162524 | 74 | 355 | 1.0 | 4.0 | 0.00 | 0.00 | 0.00 | 35 | 1012.2 |
| 20260903162025 | 73 | 345 | 1.0 | 3.0 | 0.00 | 0.00 | 0.00 | 34 | 1012.2 |
| 20260903161548 | 73 | 47 | 0.0 | 4.0 | 0.00 | 0.00 | 0.00 | 35 | 1012.0 |
| 20260903161026 | 73 | 0 | 1.0 | 4.0 | 0.00 | 0.00 | 0.00 | 38 | 1012.1 |
| 20260903160529 | 72 | 279 | 0.0 | 2.0 | 0.00 | 0.00 | 0.00 | 41 | 1011.9 |
| 20260903160043 | 71 | 0 | 0.0 | 3.0 | 0.00 | 0.00 | 0.00 | 44 | 1012.0 |
| 20260903155525 | 70 | 0 | 0.0 | 3.0 | 0.00 | 0.00 | 0.00 | 46 | 1011.9 |
| 20260903155024 | 69 | 0 | 0.0 | 2.0 | 0.00 | 0.00 | 0.00 | 45 | 1011.9 |
| 20260903154543 | 68 | 0 | 0.0 | 2.0 | 0.00 | 0.00 | 0.00 | 46 | 1011.9 |
| 20260903154024 | 67 | 0 | 0.0 | 3.0 | 0.00 | 0.00 | 0.00 | 45 | 1012.0 |
| 20260903153523 | 66 | 37 | 1.0 | 3.0 | 0.00 | 0.00 | 0.00 | 44 | 1011.9 |
| 20260903153050 | 66 | 37 | 2.0 | 3.0 | 0.00 | 0.00 | 0.00 | 47 | 1012.1 |
| 20260903152526 | 64 | 46 | 0.0 | 4.0 | 0.00 | 0.00 | 0.00 | 48 | 1012.0 |